• In Belarus
  • List of Countries
  • For 7 days
  • Water Temperature
  • Satellite Maps
  • Weather Map
  • Weather Widgets
  • user-avatar
    Login

    Hourly Weather Mokhotlong

    Today, 10 December, Monday

    Time Temperature Precipitation Wind Pressure Humidity
    00:00 +9°C° 0.1 mm 2 mps 585 mmHg 90%
    01:00 +9°C° 0.1 mm 2 mps 585 mmHg 90%
    02:00 +9°C° 0.1 mm 2 mps 585 mmHg 90%
    03:00 +10°C° 0 mm 1 mps 585 mmHg 91%
    04:00 +9°C° 0 mm 1 mps 585 mmHg 92%
    05:00 +9°C° 0 mm 1 mps 585 mmHg 92%
    06:00 +10°C° 0 mm 1 mps 586 mmHg 86%
    07:00 +11°C° 0 mm 1 mps 587 mmHg 79%
    08:00 +12°C° 0 mm 2 mps 588 mmHg 73%
    09:00 +13°C° 0.2 mm 2 mps 588 mmHg 68%
    10:00 +14°C° 0.2 mm 2 mps 588 mmHg 64%
    11:00 +15°C° 0.2 mm 2 mps 588 mmHg 60%
    12:00 +15°C° 0.7 mm 2 mps 588 mmHg 58%
    13:00 +16°C° 0.7 mm 3 mps 588 mmHg 56%
    14:00 +16°C° 0.7 mm 3 mps 588 mmHg 55%
    15:00 +14°C° 1.6 mm 3 mps 588 mmHg 61%
    16:00 +13°C° 1.6 mm 3 mps 587 mmHg 67%
    17:00 +12°C° 1.6 mm 3 mps 586 mmHg 73%
    18:00 +12°C° 0.5 mm 2 mps 586 mmHg 78%
    19:00 +10°C° 0.5 mm 2 mps 587 mmHg 83%
    20:00 +10°C° 0.5 mm 2 mps 587 mmHg 88%
    21:00 +10°C° 0 mm 1 mps 587 mmHg 89%
    22:00 +10°C° 0 mm 1 mps 587 mmHg 90%
    23:00 +10°C° 0 mm 1 mps 587 mmHg 91%

    Tomorrow, 11 December, Tuesday

    Time Temperature Precipitation Wind Pressure Humidity
    00:00 +9°C° 0 mm 1 mps 587 mmHg 91%
    01:00 +9°C° 0 mm 1 mps 586 mmHg 92%
    02:00 +8°C° 0 mm 0 mps 586 mmHg 92%
    03:00 +7°C° 0 mm 0 mps 586 mmHg 90%
    04:00 +8°C° 0 mm 1 mps 585 mmHg 89%
    05:00 +7°C° 0 mm 1 mps 585 mmHg 87%
    06:00 +10°C° 0 mm 1 mps 586 mmHg 76%
    07:00 +13°C° 0 mm 1 mps 588 mmHg 65%
    08:00 +15°C° 0 mm 1 mps 589 mmHg 54%
    09:00 +18°C° 0 mm 1 mps 589 mmHg 48%
    10:00 +18°C° 0 mm 2 mps 589 mmHg 41%
    11:00 +20°C° 0 mm 2 mps 590 mmHg 35%
    12:00 +21°C° 0 mm 2 mps 589 mmHg 34%
    13:00 +21°C° 0 mm 2 mps 589 mmHg 33%
    14:00 +23°C° 0 mm 2 mps 589 mmHg 31%
    15:00 +23°C° 0 mm 2 mps 588 mmHg 33%
    16:00 +23°C° 0 mm 2 mps 588 mmHg 34%
    17:00 +21°C° 0 mm 2 mps 587 mmHg 36%
    18:00 +19°C° 0 mm 2 mps 587 mmHg 43%
    19:00 +17°C° 0 mm 2 mps 586 mmHg 50%
    20:00 +15°C° 0 mm 1 mps 586 mmHg 58%
    21:00 +14°C° 0 mm 1 mps 586 mmHg 57%
    22:00 +14°C° 0 mm 1 mps 586 mmHg 57%
    23:00 +13°C° 0 mm 1 mps 586 mmHg 56%

    Day after tomorrow, 12 December, Wednesday

    Time Temperature Precipitation Wind Pressure Humidity
    00:00 +13°C° 0 mm 1 mps 586 mmHg 55%
    01:00 +13°C° 0 mm 1 mps 585 mmHg 53%
    02:00 +13°C° 0 mm 2 mps 585 mmHg 52%
    03:00 +12°C° 0 mm 2 mps 585 mmHg 51%
    04:00 +12°C° 0 mm 2 mps 584 mmHg 50%
    05:00 +12°C° 0 mm 2 mps 584 mmHg 49%
    06:00 +15°C° 0 mm 2 mps 586 mmHg 43%
    07:00 +18°C° 0 mm 2 mps 587 mmHg 37%
    08:00 +21°C° 0 mm 2 mps 588 mmHg 30%
    09:00 +23°C° 0 mm 2 mps 588 mmHg 27%
    10:00 +25°C° 0 mm 3 mps 589 mmHg 25%
    11:00 +26°C° 0 mm 3 mps 589 mmHg 22%
    12:00 +27°C° 0 mm 3 mps 589 mmHg 21%
    13:00 +28°C° 0 mm 3 mps 589 mmHg 21%
    14:00 +28°C° 0 mm 3 mps 589 mmHg 20%
    15:00 +28°C° 0 mm 4 mps 588 mmHg 22%
    16:00 +27°C° 0 mm 4 mps 588 mmHg 24%
    17:00 +26°C° 0 mm 4 mps 587 mmHg 26%
    18:00 +24°C° 0 mm 3 mps 587 mmHg 31%
    19:00 +21°C° 0 mm 2 mps 586 mmHg 36%
    20:00 +19°C° 0 mm 1 mps 586 mmHg 40%
    21:00 +19°C° 0 mm 1 mps 586 mmHg 41%
    22:00 +18°C° 0 mm 1 mps 586 mmHg 42%
    23:00 +16°C° 0 mm 1 mps 586 mmHg 43%

    13 December, Thursday

    Time Temperature Precipitation Wind Pressure Humidity
    00:00 +16°C° 0 mm 1 mps 586 mmHg 46%
    01:00 +15°C° 0 mm 1 mps 586 mmHg 49%
    02:00 +14°C° 0 mm 1 mps 585 mmHg 52%
    03:00 +14°C° 0 mm 1 mps 585 mmHg 53%
    04:00 +13°C° 0 mm 1 mps 586 mmHg 55%
    05:00 +13°C° 0 mm 1 mps 586 mmHg 56%
    06:00 +16°C° 0 mm 1 mps 587 mmHg 51%
    07:00 +18°C° 0 mm 2 mps 589 mmHg 46%
    08:00 +21°C° 0 mm 2 mps 590 mmHg 41%
    09:00 +22°C° 0 mm 3 mps 591 mmHg 37%
    10:00 +25°C° 0 mm 4 mps 591 mmHg 33%
    11:00 +26°C° 0 mm 5 mps 591 mmHg 29%
    12:00 +27°C° 0 mm 5 mps 591 mmHg 28%
    13:00 +27°C° 0 mm 6 mps 591 mmHg 26%
    14:00 +28°C° 0 mm 6 mps 591 mmHg 24%
    15:00 +27°C° 0 mm 6 mps 591 mmHg 24%
    16:00 +26°C° 0 mm 6 mps 590 mmHg 25%
    17:00 +26°C° 0 mm 6 mps 590 mmHg 26%
    18:00 +22°C° 0.1 mm 5 mps 589 mmHg 37%
    19:00 +19°C° 0.1 mm 3 mps 589 mmHg 49%
    20:00 +16°C° 0.1 mm 2 mps 588 mmHg 60%
    21:00 +15°C° 0 mm 2 mps 588 mmHg 64%
    22:00 +14°C° 0 mm 2 mps 588 mmHg 69%
    23:00 +14°C° 0 mm 1 mps 588 mmHg 73%

    14 December, Friday

    Time Temperature Precipitation Wind Pressure Humidity
    00:00 +13°C° 0 mm 1 mps 588 mmHg 76%
    01:00 +13°C° 0 mm 1 mps 587 mmHg 78%
    02:00 +12°C° 0 mm 1 mps 587 mmHg 81%
    03:00 +12°C° 0 mm 1 mps 587 mmHg 81%
    04:00 +11°C° 0 mm 1 mps 587 mmHg 81%
    05:00 +11°C° 0 mm 1 mps 587 mmHg 82%
    06:00 +14°C° 0 mm 1 mps 589 mmHg 69%
    07:00 +17°C° 0 mm 2 mps 590 mmHg 56%
    08:00 +19°C° 0 mm 2 mps 592 mmHg 43%
    09:00 +21°C° 0 mm 3 mps 592 mmHg 38%
    10:00 +23°C° 0 mm 4 mps 592 mmHg 34%
    11:00 +26°C° 0 mm 5 mps 593 mmHg 29%
    12:00 +27°C° 0 mm 5 mps 592 mmHg 28%
    13:00 +27°C° 0 mm 6 mps 592 mmHg 26%
    14:00 +28°C° 0 mm 6 mps 591 mmHg 24%
    15:00 +27°C° 0 mm 5 mps 591 mmHg 28%
    16:00 +26°C° 0 mm 5 mps 590 mmHg 31%
    17:00 +25°C° 0 mm 4 mps 590 mmHg 35%
    18:00 +22°C° 0.6 mm 3 mps 589 mmHg 41%
    19:00 +20°C° 0.6 mm 2 mps 588 mmHg 48%
    20:00 +18°C° 0.6 mm 1 mps 588 mmHg 55%
    21:00 +17°C° 0.1 mm 2 mps 588 mmHg 60%
    22:00 +16°C° 0.1 mm 2 mps 588 mmHg 64%
    23:00 +15°C° 0.1 mm 2 mps 588 mmHg 69%

    15 December, Saturday

    Time Temperature Precipitation Wind Pressure Humidity
    00:00 +15°C° 0 mm 2 mps 588 mmHg 69%
    01:00 +15°C° 0 mm 2 mps 587 mmHg 69%
    02:00 +15°C° 0 mm 2 mps 587 mmHg 69%
    03:00 +15°C° 0 mm 2 mps 587 mmHg 67%
    04:00 +15°C° 0 mm 2 mps 588 mmHg 65%
    05:00 +15°C° 0 mm 2 mps 588 mmHg 63%
    06:00 +17°C° 0.1 mm 2 mps 589 mmHg 59%
    07:00 +18°C° 0.1 mm 2 mps 590 mmHg 54%
    08:00 +20°C° 0.1 mm 2 mps 590 mmHg 50%
    09:00 +21°C° 0 mm 2 mps 590 mmHg 44%
    10:00 +24°C° 0 mm 2 mps 591 mmHg 39%
    11:00 +25°C° 0 mm 2 mps 591 mmHg 34%
    12:00 +26°C° 0 mm 2 mps 591 mmHg 32%
    13:00 +26°C° 0 mm 3 mps 590 mmHg 31%
    14:00 +27°C° 0 mm 3 mps 590 mmHg 30%
    15:00 +27°C° 0 mm 4 mps 590 mmHg 31%
    16:00 +26°C° 0 mm 5 mps 590 mmHg 33%
    17:00 +26°C° 0 mm 5 mps 590 mmHg 34%
    18:00 +22°C° 0.7 mm 5 mps 590 mmHg 46%
    19:00 +19°C° 0.7 mm 4 mps 590 mmHg 59%
    20:00 +17°C° 0.7 mm 3 mps 590 mmHg 71%
    21:00 +16°C° 0.8 mm 2 mps 590 mmHg 75%
    22:00 +15°C° 0.8 mm 2 mps 590 mmHg 79%
    23:00 +15°C° 0.8 mm 1 mps 590 mmHg 83%
    Show more